Port Angeles, WA
on Saturday, January 5, 2013

Saturday
Previous Day Next Day
Daily Summary
 ActualAverageRecord
Temperature
Mean Temperature °F °F  
Max Temperature 46°F 44°F 51°F (1978)
Min Temperature 37°F 32°F 15°F (2004)
Degree Days
Heating Degree Days 24    
Moisture
Dew Point 40°F   
Average Humidity 90    
Maximum Humidity 97    
Minimum Humidity 81    
Precipitation
Precipitation 0.00 in in in ()
Wind
Wind Speed 5 mph   
Max Wind Speed 12 mph   
Max Gust Speed mph   
Visibility 10 miles   
Events Rain   
Averages and records for this station are not official NWS values.
Key: T is trace of precipitation, MM is missing value
Source: NWS Daily Summary
Seasonal Weather Averages
Time(PST)TemperatureDew PointHumidity Pressure Visibility Wind DirectionWind SpeedGust SpeedPrecipitationEvents Conditions
12:53 AM 44.1°F 41.0°F 89% 30.16 in 10.0 miles Calm Calm - N/A   Overcast
1:53 AM 42.1°F 39.9°F 92% 30.17 in 10.0 miles WSW 4.6 mph - N/A   Overcast
2:53 AM 43.0°F 39.9°F 89% 30.17 in 10.0 miles Calm Calm - N/A   Overcast
3:53 AM 42.1°F 39.9°F 92% 30.17 in 4.0 miles SW 5.8 mph - N/A   Overcast
4:53 AM 42.1°F 39.9°F 92% 30.17 in 8.0 miles SW 4.6 mph - N/A   Overcast
5:53 AM 43.0°F 41.0°F 93% 30.16 in 10.0 miles Variable 3.5 mph - N/A   Overcast
6:27 AM 43.0°F 41.0°F 93% 30.15 in 8.0 miles SE 5.8 mph - 0.00 in Rain Light Rain
6:53 AM 43.0°F 42.1°F 97% 30.15 in 6.0 miles Calm Calm - 0.00 in Rain Light Rain
7:53 AM 43.0°F 42.1°F 97% 30.13 in 8.0 miles ESE 11.5 mph - 0.00 in   Overcast
8:12 AM 43.0°F 41.0°F 93% 30.12 in 10.0 miles SE 9.2 mph - N/A   Overcast
8:53 AM 43.0°F 41.0°F 93% 30.13 in 10.0 miles ESE 9.2 mph - N/A   Mostly Cloudy
9:05 AM 42.8°F 41.0°F 93% 30.12 in 10.0 miles East 8.1 mph - N/A   Mostly Cloudy
9:16 AM 43.0°F 41.0°F 93% 30.11 in 10.0 miles East 9.2 mph - N/A   Mostly Cloudy
9:53 AM 43.0°F 41.0°F 93% 30.13 in 10.0 miles Calm Calm - N/A   Overcast
10:25 AM 43.0°F 41.0°F 93% 30.11 in 10.0 miles ESE 4.6 mph - N/A   Partly Cloudy
10:53 AM 44.1°F 41.0°F 89% 30.11 in 10.0 miles Calm Calm - N/A   Partly Cloudy
11:13 AM 44.1°F 41.0°F 89% 30.10 in 10.0 miles WNW 4.6 mph - N/A   Mostly Cloudy
11:45 AM 44.6°F 42.8°F 93% 30.08 in 10.0 miles WNW 5.8 mph - N/A   Scattered Clouds
11:53 AM 45.0°F 42.1°F 90% 30.08 in 10.0 miles West 6.9 mph - N/A   Scattered Clouds
12:01 PM 45.0°F 42.1°F 90% 30.07 in 10.0 miles WNW 8.1 mph - N/A   Mostly Cloudy
12:33 PM 45.0°F 42.1°F 90% 30.07 in 10.0 miles West 9.2 mph - N/A   Partly Cloudy
12:53 PM 45.0°F 42.1°F 90% 30.06 in 10.0 miles Variable 3.5 mph - N/A   Partly Cloudy
1:53 PM 46.0°F 41.0°F 83% 30.05 in 10.0 miles WNW 10.4 mph - N/A   Clear
2:53 PM 46.0°F 42.1°F 86% 30.05 in 10.0 miles WNW 11.5 mph - N/A   Clear
3:53 PM 45.0°F 41.0°F 86% 30.05 in 10.0 miles West 10.4 mph - N/A   Clear
4:31 PM 45.0°F 41.0°F 86% 30.06 in 10.0 miles West 6.9 mph - N/A   Overcast
4:53 PM 45.0°F 41.0°F 86% 30.07 in 10.0 miles West 9.2 mph - N/A   Overcast
5:23 PM 44.1°F 39.9°F 85% 30.06 in 10.0 miles West 8.1 mph - N/A   Mostly Cloudy
5:48 PM 44.6°F 39.2°F 81% 30.07 in 10.0 miles WSW 6.9 mph - N/A   Overcast
5:53 PM 44.1°F 39.9°F 85% 30.08 in 10.0 miles WSW 6.9 mph - N/A   Overcast
6:15 PM 45.0°F 41.0°F 86% 30.07 in 10.0 miles West 6.9 mph - 0.00 in Rain Light Rain
6:51 PM 42.8°F 39.2°F 87% 30.08 in 10.0 miles West 11.5 mph - 0.00 in Rain Light Rain
6:53 PM 43.0°F 39.0°F 86% 30.09 in 10.0 miles West 11.5 mph - 0.00 in Rain Light Rain
7:53 PM 42.1°F 37.9°F 85% 30.10 in 10.0 miles West 4.6 mph - 0.00 in   Overcast
8:25 PM 42.1°F 37.9°F 85% 30.09 in 10.0 miles West 3.5 mph - N/A   Overcast
8:53 PM 41.0°F 39.0°F 93% 30.10 in 10.0 miles Calm Calm - N/A   Overcast
9:53 PM 39.9°F 37.9°F 93% 30.10 in 10.0 miles SW 3.5 mph - N/A   Mostly Cloudy
10:53 PM 37.9°F 36.0°F 93% 30.11 in 10.0 miles WSW 4.6 mph - N/A   Overcast
11:53 PM 39.0°F 36.0°F 89% 30.11 in 10.0 miles South 3.5 mph - N/A   Mostly Cloudy
Moon Phase
Jan. 05 Jan. 11 Jan. 18 Jan. 26 Feb. 03
Sunrise:08:03 AM (PST) Moon Rise:01:00 AM (PST)1/5
Sunset:04:35 PM (PST) Moon Set:11:42 AM (PST)1/5

Copyright © 2014 The Weather Underground, Inc.